Time,TemperatureF,DewpointF,PressureIn,WindDirection,WindDirectionDegrees,WindSpeedMPH,WindSpeedGustMPH,Humidity,HourlyPrecipIn,Conditions,Clouds,dailyrainin,SoftwareType,DateUTC
2013-05-01 00:01:00,59.2,35.4,30.06,North,-999,0.0,0.0,41,0.00,,,-99.99,FreeWX 2.04,2013-05-01 04:01:00,
2013-05-01 00:11:00,59.0,36.0,30.06,North,-999,0.0,0.0,42,0.00,,,-99.99,FreeWX 2.04,2013-05-01 04:11:00,
2013-05-01 00:21:00,58.6,35.6,30.06,North,-999,0.0,0.0,42,0.00,,,-99.99,FreeWX 2.04,2013-05-01 04:21:00,
2013-05-01 00:31:00,58.5,36.0,30.06,North,-999,0.0,0.0,43,0.00,,,-99.99,FreeWX 2.04,2013-05-01 04:31:00,
2013-05-01 00:41:00,58.1,36.3,30.06,North,-999,0.0,0.0,44,0.00,,,-99.99,FreeWX 2.04,2013-05-01 04:41:00,
2013-05-01 00:51:00,57.9,36.7,30.06,North,-999,0.0,0.0,45,0.00,,,-99.99,FreeWX 2.04,2013-05-01 04:51:00,
2013-05-01 01:01:00,57.6,36.3,30.06,North,-999,0.0,0.0,45,0.00,,,-99.99,FreeWX 2.04,2013-05-01 05:01:00,
2013-05-01 01:11:00,57.6,36.9,30.06,North,-999,0.0,0.0,46,0.00,,,-99.99,FreeWX 2.04,2013-05-01 05:11:00,
2013-05-01 01:21:00,57.2,36.7,30.06,North,-999,0.0,0.0,46,0.00,,,-99.99,FreeWX 2.04,2013-05-01 05:21:00,
2013-05-01 01:31:00,57.0,37.0,30.06,North,-999,0.0,0.0,47,0.00,,,-99.99,FreeWX 2.04,2013-05-01 05:31:00,
2013-05-01 01:41:00,56.7,36.7,30.06,North,-999,0.0,0.0,47,0.00,,,-99.99,FreeWX 2.04,2013-05-01 05:41:00,
2013-05-01 01:51:00,56.3,36.9,30.06,North,-999,0.0,0.0,48,0.00,,,-99.99,FreeWX 2.04,2013-05-01 05:51:00,
2013-05-01 02:01:00,56.3,37.4,30.06,North,-999,0.0,0.0,49,0.00,,,-99.99,FreeWX 2.04,2013-05-01 06:01:00,
2013-05-01 02:11:00,56.1,37.8,30.06,North,-999,0.0,0.0,50,0.00,,,-99.99,FreeWX 2.04,2013-05-01 06:11:00,
2013-05-01 02:21:00,55.8,37.4,30.06,North,-999,0.0,0.0,50,0.00,,,-99.99,FreeWX 2.04,2013-05-01 06:21:00,
2013-05-01 02:31:00,55.6,37.8,30.06,North,-999,0.0,0.0,51,0.00,,,-99.99,FreeWX 2.04,2013-05-01 06:31:00,
2013-05-01 02:41:00,55.6,37.8,30.06,North,-999,0.0,0.0,51,0.00,,,-99.99,FreeWX 2.04,2013-05-01 06:41:00,
2013-05-01 02:51:00,55.6,37.8,30.06,North,-999,0.0,0.0,51,0.00,,,-99.99,FreeWX 2.04,2013-05-01 06:51:00,
2013-05-01 03:01:00,55.2,37.4,30.06,North,-999,0.0,0.0,51,0.00,,,-99.99,FreeWX 2.04,2013-05-01 07:01:00,
2013-05-01 03:11:00,55.2,37.9,30.06,North,-999,0.0,0.0,52,0.00,,,-99.99,FreeWX 2.04,2013-05-01 07:11:00,
2013-05-01 03:21:00,55.0,37.8,30.06,North,-999,0.0,0.0,52,0.00,,,-99.99,FreeWX 2.04,2013-05-01 07:21:00,
2013-05-01 03:31:00,54.9,37.6,30.06,North,-999,0.0,0.0,52,0.00,,,-99.99,FreeWX 2.04,2013-05-01 07:31:00,
2013-05-01 03:41:00,54.7,37.9,30.06,North,-999,0.0,0.0,53,0.00,,,-99.99,FreeWX 2.04,2013-05-01 07:41:00,
2013-05-01 03:51:00,54.7,37.9,30.06,North,-999,0.0,0.0,53,0.00,,,-99.99,FreeWX 2.04,2013-05-01 07:51:00,
2013-05-01 04:01:00,54.9,38.5,30.06,North,-999,0.0,0.0,54,0.00,,,-99.99,FreeWX 2.04,2013-05-01 08:01:00,
2013-05-01 04:12:00,54.5,38.1,30.09,North,-999,0.0,0.0,54,0.00,,,-99.99,FreeWX 2.04,2013-05-01 08:12:00,
2013-05-01 04:22:00,54.5,38.7,30.09,North,-999,0.0,0.0,55,0.00,,,-99.99,FreeWX 2.04,2013-05-01 08:22:00,
2013-05-01 04:32:00,54.1,38.3,30.09,North,-999,0.0,0.0,55,0.00,,,-99.99,FreeWX 2.04,2013-05-01 08:32:00,
2013-05-01 04:42:00,54.3,39.0,30.09,North,-999,0.0,0.0,56,0.00,,,-99.99,FreeWX 2.04,2013-05-01 08:42:00,
2013-05-01 04:52:00,54.1,39.2,30.09,North,-999,0.0,0.0,57,0.00,,,-99.99,FreeWX 2.04,2013-05-01 08:52:00,
2013-05-01 05:02:00,54.1,39.2,30.09,North,-999,0.0,0.0,57,0.00,,,-99.99,FreeWX 2.04,2013-05-01 09:02:00,
2013-05-01 05:12:00,54.1,39.7,30.09,North,-999,0.0,0.0,58,0.00,,,-99.99,FreeWX 2.04,2013-05-01 09:12:00,
2013-05-01 05:22:00,54.0,39.0,30.09,North,-999,0.0,0.0,57,0.00,,,-99.99,FreeWX 2.04,2013-05-01 09:22:00,
2013-05-01 05:32:00,53.6,39.2,30.09,North,-999,0.0,0.0,58,0.00,,,-99.99,FreeWX 2.04,2013-05-01 09:32:00,
2013-05-01 05:42:00,53.6,39.2,30.09,North,-999,0.0,0.0,58,0.00,,,-99.99,FreeWX 2.04,2013-05-01 09:42:00,
2013-05-01 05:52:00,53.8,39.4,30.12,North,-999,0.0,0.0,58,0.00,,,-99.99,FreeWX 2.04,2013-05-01 09:52:00,
2013-05-01 06:02:00,53.6,39.6,30.12,North,-999,0.0,0.0,59,0.00,,,-99.99,FreeWX 2.04,2013-05-01 10:02:00,
2013-05-01 06:12:00,53.6,39.2,30.12,North,-999,0.0,0.0,58,0.00,,,-99.99,FreeWX 2.04,2013-05-01 10:12:00,
2013-05-01 06:22:00,53.4,39.4,30.12,North,-999,0.0,0.0,59,0.00,,,-99.99,FreeWX 2.04,2013-05-01 10:22:00,
2013-05-01 06:32:00,53.1,39.2,30.12,North,-999,0.0,0.0,59,0.00,,,-99.99,FreeWX 2.04,2013-05-01 10:32:00,
2013-05-01 06:42:00,53.1,39.6,30.12,North,-999,0.0,0.0,60,0.00,,,-99.99,FreeWX 2.04,2013-05-01 10:42:00,
2013-05-01 06:52:00,52.9,39.4,30.12,North,-999,0.0,0.0,60,0.00,,,-99.99,FreeWX 2.04,2013-05-01 10:52:00,
2013-05-01 07:02:00,53.1,39.9,30.12,North,-999,0.0,0.0,61,0.00,,,-99.99,FreeWX 2.04,2013-05-01 11:02:00,
2013-05-01 07:12:00,53.2,41.0,30.12,North,-999,0.0,0.0,63,0.00,,,-99.99,FreeWX 2.04,2013-05-01 11:12:00,
2013-05-01 07:22:00,53.6,41.4,30.15,North,-999,0.0,0.0,63,0.00,,,-99.99,FreeWX 2.04,2013-05-01 11:22:00,
2013-05-01 07:32:00,53.8,41.5,30.15,North,-999,0.0,0.0,63,0.00,,,-99.99,FreeWX 2.04,2013-05-01 11:32:00,
2013-05-01 07:42:00,54.0,41.7,30.15,North,-999,0.0,0.0,63,0.00,,,-99.99,FreeWX 2.04,2013-05-01 11:42:00,
2013-05-01 07:52:00,54.7,42.3,30.15,North,-999,0.0,0.0,63,0.00,,,-99.99,FreeWX 2.04,2013-05-01 11:52:00,
2013-05-01 08:02:00,55.8,43.3,30.15,North,-999,0.0,0.0,63,0.00,,,-99.99,FreeWX 2.04,2013-05-01 12:02:00,
2013-05-01 08:12:00,56.8,44.8,30.15,North,-999,0.0,3.6,64,0.00,,,-99.99,FreeWX 2.04,2013-05-01 12:12:00,
2013-05-01 08:22:00,58.8,45.9,30.18,NNW,344,2.0,4.9,62,0.00,,,-99.99,FreeWX 2.04,2013-05-01 12:22:00,
2013-05-01 08:32:00,60.4,43.2,30.18,NNW,348,4.0,6.7,53,0.00,,,-99.99,FreeWX 2.04,2013-05-01 12:32:00,
2013-05-01 08:42:00,61.7,42.3,30.18,North,350,4.0,7.4,49,0.00,,,-99.99,FreeWX 2.04,2013-05-01 12:42:00,
2013-05-01 08:52:00,62.8,42.3,30.18,North,350,3.0,6.9,47,0.00,,,-99.99,FreeWX 2.04,2013-05-01 12:52:00,
2013-05-01 09:02:00,63.9,41.5,30.18,North,351,3.0,6.3,44,0.00,,,-99.99,FreeWX 2.04,2013-05-01 13:02:00,
2013-05-01 09:12:00,64.9,40.6,30.18,North,350,2.0,6.9,41,0.00,,,-99.99,FreeWX 2.04,2013-05-01 13:12:00,
2013-05-01 09:22:00,66.2,38.5,30.18,NNW,348,4.0,8.3,36,0.00,,,-99.99,FreeWX 2.04,2013-05-01 13:22:00,
2013-05-01 09:32:00,67.3,37.9,30.18,NNW,348,4.0,8.7,34,0.00,,,-99.99,FreeWX 2.04,2013-05-01 13:32:00,
2013-05-01 09:42:00,68.2,37.9,30.18,North,350,4.0,6.3,33,0.00,,,-99.99,FreeWX 2.04,2013-05-01 13:42:00,
2013-05-01 09:52:00,69.3,37.4,30.18,North,350,3.0,6.9,31,0.00,,,-99.99,FreeWX 2.04,2013-05-01 13:52:00,
2013-05-01 10:02:00,70.0,34.5,30.18,NNW,348,3.0,6.7,27,0.00,,,-99.99,FreeWX 2.04,2013-05-01 14:02:00,
2013-05-01 10:12:00,70.9,34.3,30.18,North,351,3.0,5.4,26,0.00,,,-99.99,FreeWX 2.04,2013-05-01 14:12:00,
2013-05-01 10:22:00,72.5,33.6,30.18,North,351,3.0,6.9,24,0.00,,,-99.99,FreeWX 2.04,2013-05-01 14:22:00,
2013-05-01 10:32:00,73.9,33.8,30.18,North,350,3.0,5.4,23,0.00,,,-99.99,FreeWX 2.04,2013-05-01 14:32:00,
2013-05-01 10:42:00,74.8,32.4,30.18,NNW,346,2.0,6.3,21,0.00,,,-99.99,FreeWX 2.04,2013-05-01 14:42:00,
2013-05-01 10:52:00,76.3,33.4,30.18,North,351,3.0,6.3,21,0.00,,,-99.99,FreeWX 2.04,2013-05-01 14:52:00,
2013-05-01 11:02:00,76.6,32.5,30.18,North,349,2.0,4.9,20,0.00,,,-99.99,FreeWX 2.04,2013-05-01 15:02:00,
2013-05-01 11:12:00,77.5,33.3,30.18,North,350,4.0,8.3,20,0.00,,,-99.99,FreeWX 2.04,2013-05-01 15:12:00,
2013-05-01 11:22:00,78.6,34.2,30.18,NNW,348,4.0,6.9,20,0.00,,,-99.99,FreeWX 2.04,2013-05-01 15:22:00,
2013-05-01 11:32:00,78.1,33.8,30.18,North,351,3.0,5.4,20,0.00,,,-99.99,FreeWX 2.04,2013-05-01 15:32:00,
2013-05-01 11:42:00,79.3,30.7,30.18,North,2,3.0,7.4,17,0.00,,,-99.99,FreeWX 2.04,2013-05-01 15:42:00,
2013-05-01 11:52:00,79.9,31.1,30.18,NNW,345,3.0,8.7,17,0.00,,,-99.99,FreeWX 2.04,2013-05-01 15:52:00,
2013-05-01 12:02:00,81.1,32.2,30.18,NNW,340,2.0,6.3,17,0.00,,,-99.99,FreeWX 2.04,2013-05-01 16:02:00,
2013-05-01 12:12:00,81.9,31.3,30.18,North,350,4.0,8.7,16,0.00,,,-99.99,FreeWX 2.04,2013-05-01 16:12:00,
2013-05-01 12:22:00,83.1,28.9,30.18,North,349,4.0,7.4,14,0.00,,,-99.99,FreeWX 2.04,2013-05-01 16:22:00,
2013-05-01 12:32:00,83.5,27.5,30.18,NNW,348,3.0,11.2,13,0.00,,,-99.99,FreeWX 2.04,2013-05-01 16:32:00,
2013-05-01 12:42:00,82.8,28.8,30.18,SSE,166,3.0,6.7,14,0.00,,,-99.99,FreeWX 2.04,2013-05-01 16:42:00,
2013-05-01 12:52:00,84.4,28.2,30.18,NNW,344,4.0,10.1,13,0.00,,,-99.99,FreeWX 2.04,2013-05-01 16:52:00,
2013-05-01 13:02:00,83.8,27.7,30.18,West,280,4.0,6.9,13,0.00,,,-99.99,FreeWX 2.04,2013-05-01 17:02:00,
2013-05-01 13:12:00,82.6,28.6,30.18,South,174,5.0,8.3,14,0.00,,,-99.99,FreeWX 2.04,2013-05-01 17:12:00,
2013-05-01 13:22:00,84.7,28.4,30.15,North,349,3.0,8.7,13,0.00,,,-99.99,FreeWX 2.04,2013-05-01 17:22:00,
2013-05-01 13:32:00,86.0,29.5,30.15,NNW,346,4.0,8.7,13,0.00,,,-99.99,FreeWX 2.04,2013-05-01 17:32:00,
2013-05-01 13:42:00,87.3,30.4,30.15,North,349,4.0,9.2,13,0.00,,,-99.99,FreeWX 2.04,2013-05-01 17:42:00,
2013-05-01 13:52:00,88.3,31.3,30.15,NNW,345,4.0,7.4,13,0.00,,,-99.99,FreeWX 2.04,2013-05-01 17:52:00,
2013-05-01 14:02:00,88.0,30.9,30.15,North,349,4.0,9.2,13,0.00,,,-99.99,FreeWX 2.04,2013-05-01 18:02:00,
2013-05-01 14:12:00,88.5,31.5,30.15,NNW,346,6.0,14.3,13,0.00,,,-99.99,FreeWX 2.04,2013-05-01 18:12:00,
2013-05-01 14:22:00,88.3,31.3,30.15,NNW,346,4.0,11.6,13,0.00,,,-99.99,FreeWX 2.04,2013-05-01 18:22:00,
2013-05-01 14:32:00,88.0,30.9,30.15,North,349,5.0,11.0,13,0.00,,,-99.99,FreeWX 2.04,2013-05-01 18:32:00,
2013-05-01 14:42:00,87.6,30.7,30.15,NNW,344,6.0,11.2,13,0.00,,,-99.99,FreeWX 2.04,2013-05-01 18:42:00,
2013-05-01 14:52:00,88.0,30.9,30.15,NNW,347,6.0,13.4,13,0.00,,,-99.99,FreeWX 2.04,2013-05-01 18:52:00,
2013-05-01 15:02:00,88.2,31.1,30.15,NNW,347,5.0,11.2,13,0.00,,,-99.99,FreeWX 2.04,2013-05-01 19:02:00,
2013-05-01 15:12:00,88.2,31.1,30.15,NNW,345,5.0,11.6,13,0.00,,,-99.99,FreeWX 2.04,2013-05-01 19:12:00,
2013-05-01 15:22:00,88.9,29.7,30.12,NNW,345,5.0,9.2,12,0.00,,,-99.99,FreeWX 2.04,2013-05-01 19:22:00,
2013-05-01 15:32:00,86.5,29.8,30.12,NNW,342,5.0,10.5,13,0.00,,,-99.99,FreeWX 2.04,2013-05-01 19:32:00,
2013-05-01 15:42:00,86.9,30.2,30.12,NNW,348,5.0,10.1,13,0.00,,,-99.99,FreeWX 2.04,2013-05-01 19:42:00,
2013-05-01 15:52:00,87.8,30.7,30.12,NNW,345,6.0,13.0,13,0.00,,,-99.99,FreeWX 2.04,2013-05-01 19:52:00,
2013-05-01 16:02:00,86.0,29.5,30.12,NNW,344,5.0,9.2,13,0.00,,,-99.99,FreeWX 2.04,2013-05-01 20:02:00,
2013-05-01 16:12:00,85.3,28.9,30.12,NNW,347,3.0,5.8,13,0.00,,,-99.99,FreeWX 2.04,2013-05-01 20:12:00,
2013-05-01 16:22:00,82.8,28.8,30.12,North,356,4.0,9.2,14,0.00,,,-99.99,FreeWX 2.04,2013-05-01 20:22:00,
2013-05-01 16:32:00,82.8,28.8,30.12,NNW,348,4.0,8.7,14,0.00,,,-99.99,FreeWX 2.04,2013-05-01 20:32:00,
2013-05-01 16:43:00,83.1,28.9,30.12,NW,317,3.0,9.2,14,0.00,,,-99.99,FreeWX 2.04,2013-05-01 20:43:00,
2013-05-01 16:53:00,82.2,28.2,30.12,NNW,348,4.0,8.7,14,0.00,,,-99.99,FreeWX 2.04,2013-05-01 20:53:00,
2013-05-01 17:03:00,81.9,28.0,30.12,North,350,4.0,8.7,14,0.00,,,-99.99,FreeWX 2.04,2013-05-01 21:03:00,
2013-05-01 17:13:00,81.5,27.7,30.12,NNW,340,5.0,9.2,14,0.00,,,-99.99,FreeWX 2.04,2013-05-01 21:13:00,
2013-05-01 17:23:00,80.4,26.8,30.12,NNW,347,5.0,11.2,14,0.00,,,-99.99,FreeWX 2.04,2013-05-01 21:23:00,
2013-05-01 17:33:00,79.9,26.4,30.12,NNW,347,4.0,9.6,14,0.00,,,-99.99,FreeWX 2.04,2013-05-01 21:33:00,
2013-05-01 17:43:00,80.1,26.6,30.12,NNW,348,4.0,9.6,14,0.00,,,-99.99,FreeWX 2.04,2013-05-01 21:43:00,
2013-05-01 17:53:00,80.6,27.0,30.12,NNW,347,4.0,10.5,14,0.00,,,-99.99,FreeWX 2.04,2013-05-01 21:53:00,
2013-05-01 18:03:00,80.4,26.8,30.12,North,349,5.0,8.7,14,0.00,,,-99.99,FreeWX 2.04,2013-05-01 22:03:00,
2013-05-01 18:13:00,79.3,27.7,30.12,NNW,348,4.0,10.1,15,0.00,,,-99.99,FreeWX 2.04,2013-05-01 22:13:00,
2013-05-01 18:23:00,79.3,27.7,30.12,NNW,346,4.0,6.7,15,0.00,,,-99.99,FreeWX 2.04,2013-05-01 22:23:00,
2013-05-01 18:33:00,79.2,27.5,30.12,NNW,347,4.0,7.8,15,0.00,,,-99.99,FreeWX 2.04,2013-05-01 22:33:00,
2013-05-01 18:43:00,79.2,27.5,30.12,North,350,4.0,10.5,15,0.00,,,-99.99,FreeWX 2.04,2013-05-01 22:43:00,
2013-05-01 18:53:00,78.8,27.3,30.12,North,349,4.0,10.5,15,0.00,,,-99.99,FreeWX 2.04,2013-05-01 22:53:00,
2013-05-01 19:03:00,78.4,27.0,30.12,North,349,4.0,9.2,15,0.00,,,-99.99,FreeWX 2.04,2013-05-01 23:03:00,
2013-05-01 19:13:00,78.1,26.6,30.12,NNW,348,4.0,7.4,15,0.00,,,-99.99,FreeWX 2.04,2013-05-01 23:13:00,
2013-05-01 19:23:00,77.7,26.4,30.12,North,349,4.0,9.2,15,0.00,,,-99.99,FreeWX 2.04,2013-05-01 23:23:00,
2013-05-01 19:33:00,77.4,26.1,30.12,NNW,348,5.0,11.0,15,0.00,,,-99.99,FreeWX 2.04,2013-05-01 23:33:00,
2013-05-01 19:43:00,76.8,25.7,30.12,NNW,345,4.0,8.3,15,0.00,,,-99.99,FreeWX 2.04,2013-05-01 23:43:00,
2013-05-01 19:53:00,75.9,25.0,30.12,NNW,347,4.0,10.1,15,0.00,,,-99.99,FreeWX 2.04,2013-05-01 23:53:00,
2013-05-01 20:03:00,75.6,24.6,30.15,NNW,348,5.0,8.7,15,0.00,,,-99.99,FreeWX 2.04,2013-05-02 00:03:00,
2013-05-01 20:13:00,74.8,24.1,30.15,NNW,345,5.0,9.6,15,0.00,,,-99.99,FreeWX 2.04,2013-05-02 00:13:00,
2013-05-01 20:23:00,74.1,25.0,30.15,NNW,348,4.0,7.8,16,0.00,,,-99.99,FreeWX 2.04,2013-05-02 00:23:00,
2013-05-01 20:33:00,73.6,24.6,30.15,NNW,342,4.0,7.8,16,0.00,,,-99.99,FreeWX 2.04,2013-05-02 00:33:00,
2013-05-01 20:43:00,73.0,24.3,30.15,NNW,343,3.0,7.4,16,0.00,,,-99.99,FreeWX 2.04,2013-05-02 00:43:00,
2013-05-01 20:53:00,72.1,23.5,30.15,NNW,347,3.0,6.3,16,0.00,,,-99.99,FreeWX 2.04,2013-05-02 00:53:00,
2013-05-01 21:03:00,71.8,23.2,30.15,North,349,2.0,6.9,16,0.00,,,-99.99,FreeWX 2.04,2013-05-02 01:03:00,
2013-05-01 21:13:00,71.2,26.8,30.15,North,349,3.0,6.7,19,0.00,,,-99.99,FreeWX 2.04,2013-05-02 01:13:00,
2013-05-01 21:23:00,70.7,26.4,30.15,NNW,347,4.0,7.8,19,0.00,,,-99.99,FreeWX 2.04,2013-05-02 01:23:00,
2013-05-01 21:33:00,70.3,26.1,30.18,NNW,348,4.0,7.8,19,0.00,,,-99.99,FreeWX 2.04,2013-05-02 01:33:00,
2013-05-01 21:43:00,70.0,25.9,30.18,NNW,343,4.0,8.3,19,0.00,,,-99.99,FreeWX 2.04,2013-05-02 01:43:00,
2013-05-01 21:53:00,69.8,25.7,30.18,NNW,346,4.0,7.4,19,0.00,,,-99.99,FreeWX 2.04,2013-05-02 01:53:00,
2013-05-01 22:03:00,69.4,25.3,30.18,NNW,346,4.0,6.7,19,0.00,,,-99.99,FreeWX 2.04,2013-05-02 02:03:00,
2013-05-01 22:13:00,69.1,25.2,30.18,North,349,2.0,5.8,19,0.00,,,-99.99,FreeWX 2.04,2013-05-02 02:13:00,
2013-05-01 22:23:00,68.5,25.9,30.18,North,350,2.0,6.3,20,0.00,,,-99.99,FreeWX 2.04,2013-05-02 02:23:00,
2013-05-01 22:33:00,68.2,27.9,30.18,NNW,348,1.0,6.7,22,0.00,,,-99.99,FreeWX 2.04,2013-05-02 02:33:00,
2013-05-01 22:43:00,67.8,27.5,30.18,NNW,348,2.0,4.9,22,0.00,,,-99.99,FreeWX 2.04,2013-05-02 02:43:00,
2013-05-01 22:53:00,67.5,27.3,30.18,North,351,2.0,6.3,22,0.00,,,-99.99,FreeWX 2.04,2013-05-02 02:53:00,
2013-05-01 23:03:00,67.1,27.0,30.18,NNW,344,3.0,6.3,22,0.00,,,-99.99,FreeWX 2.04,2013-05-02 03:03:00,
2013-05-01 23:13:00,66.9,27.9,30.18,NNW,344,2.0,5.8,23,0.00,,,-99.99,FreeWX 2.04,2013-05-02 03:13:00,
2013-05-01 23:23:00,66.6,27.7,30.18,North,349,2.0,4.9,23,0.00,,,-99.99,FreeWX 2.04,2013-05-02 03:23:00,
2013-05-01 23:33:00,66.6,27.7,30.18,NNW,345,3.0,6.9,23,0.00,,,-99.99,FreeWX 2.04,2013-05-02 03:33:00,
2013-05-01 23:43:00,66.4,27.5,30.18,NNW,347,3.0,6.7,23,0.00,,,-99.99,FreeWX 2.04,2013-05-02 03:43:00,
2013-05-01 23:53:00,66.4,27.5,30.18,NNW,344,4.0,8.7,23,0.00,,,-99.99,FreeWX 2.04,2013-05-02 03:53:00,